Regional Weather Roundup
Issued by NWS

Home | Current Version | Previous Version | Graphics & Text | Print | Product List | Glossary On
Versions: 1 2 3 4 5 6 7 8 9 10 11 12 13 14 15 16 17 18 19 20 21 22 23 24 25 26 27 28 29
000
ASUS43 KDMX 300107
RWRIA

WEATHER ROUNDUP FOR IOWA
NATIONAL WEATHER SERVICE DES MOINES IA
800 PM CDT WED OCT 29 2014

NOTE: "FAIR" INDICATES FEW OR NO CLOUDS BELOW 12,000 FEET WITH NO
SIGNIFICANT WEATHER AND/OR OBSTRUCTIONS TO VISIBILITY.

* - THESE STATIONS ARE NOT NWS STATIONS...THUS NOT UNDER NWS
QUALITY CONTROL.  THEY ALSO DO NOT REPORT WEATHER SUCH
AS PRECIPITATION OR FOG.

IAZ001>003-012>014-020>022-031>034-043>046-300200-
   NORTHWEST IOWA

CITY           SKY/WX    TMP DP  RH WIND       PRES   REMARKS
CARROLL *      CLEAR     37  32  81 CALM      30.09S
CHEROKEE *     CLEAR     41  32  70 CALM      30.09R
DENISON *      CLEAR     41  32  70 SE3       30.08R
LE MARS *      CLEAR     43  32  65 CALM      30.08S
ORANGE CITY *  CLEAR     46  30  53 S3        30.07S
SHELDON *      CLEAR     41  30  65 S3        30.07R
SIOUX CITY     PTCLDY    45  31  58 SE7       30.08R
SPENCER        PTCLDY    37  29  72 S6        30.08R WCI  32
STORM LAKE *   CLEAR     43  30  61 S6        30.09R
$$

IAZ055>058-069>071-079>083-090>094-300200-
   SOUTHWEST IOWA

CITY           SKY/WX    TMP DP  RH WIND       PRES   REMARKS
ATLANTIC *     CLEAR     41  32  70 SW3       30.10S
AUDUBON *      CLEAR     37  30  75 CALM      30.11S
CLARINDA *     CLEAR     39  34  81 CALM      30.13S
COUNCIL BLFS * CLEAR     45  32  61 SE6       30.08S
CRESTON *      CLEAR     43  34  70 S6        30.12S
HARLAN  *      CLEAR     43  30  61 S3        30.13S
LAMONI         CLEAR     49  33  54 S5        30.13S
RED OAK *      CLEAR     43  32  65 CALM      30.11S
SHENANDOAH *     N/A     45  32  61 CALM      30.11F
$$

IAZ047>049-059>061-072>074-084-300200-
   CENTRAL IOWA

CITY           SKY/WX    TMP DP  RH WIND       PRES   REMARKS
AMES           CLEAR     37  32  82 CALM      30.11S
ANKENY *       CLEAR     41  34  75 CALM      30.12R
CHARITON *     CLEAR     45  34  65 S6        30.13S
DES MOINES     CLEAR     47  33  58 S6        30.12S
GRINNELL*      CLEAR     37  32  81 CALM      30.13S
KNOXVILLE *    CLEAR     45  34  65 SE5       30.11S
MARSHALLTOWN   CLEAR     39  32  76 E6        30.11S WCI  35
PELLA *        CLEAR     41  34  75 CALM      30.14S
PERRY *          N/A     39  34  81 S5        30.11S
$$

IAZ004>006-015-016-023>025-035-036-300200-
   NORTH CENTRAL IOWA

CITY           SKY/WX    TMP DP  RH WIND       PRES   REMARKS
ALGONA *       PTCLDY    41  32  70 SE5       30.09S
CLARION *      CLEAR     37  32  81 SE5       30.10S WCI  34
ESTHERVILLE    CLEAR     38  27  64 S6        30.07S WCI  33
FORT DODGE *   CLEAR     39  30  70 CALM      30.11R
MASON CITY     CLEAR     33  29  85 CALM      30.11S FOG
FOREST CITY *  CLEAR     34  32  93 CALM      30.10R
IOWA FALLS *     N/A     37  32  81 CALM      30.12S
$$

IAZ007>011-017>019-026>030-037>042-050>054-066-300200-
   NORTHEAST IOWA

CITY           SKY/WX    TMP DP  RH WIND       PRES   REMARKS
CEDAR RAPIDS   CLEAR     37  31  78 CALM      30.13S
CHARLES CITY * CLEAR     37  32  81 CALM      30.12R
CLINTON *      CLEAR     36  28  75 E5        30.17R WCI  32
DECORAH *      CLEAR     39  32  75 CALM      30.11R
DUBUQUE        CLEAR     36  31  82 CALM      30.13S
MONTICELLO *   CLEAR     39  32  75 CALM      30.13S
OELWEIN *      CLEAR     39  32  75 CALM      30.12F
WATERLOO       CLEAR     36  30  79 CALM      30.11F
$$

IAZ064-065-067-068-078-300200-
   EAST CENTRAL IOWA

CITY           SKY/WX    TMP DP  RH WIND       PRES   REMARKS
DAVENPORT      CLEAR     39  29  67 CALM      30.14S
IOWA CITY      CLEAR     39  32  76 W3        30.16S
MT. PLEASANT * CLEAR     43  34  70 CALM      30.15F
MUSCATINE *    CLEAR     43  32  65 W6        30.16S
QUAD CITIES    CLEAR     40  31  70 CALM      30.14S
$$

IAZ062-063-075>077-085>089-095>099-300200-
   SOUTHEAST IOWA

CITY           SKY/WX    TMP DP  RH WIND       PRES   REMARKS
BURLINGTON     CLEAR     40  34  79 CALM      30.15S
FAIRFIELD *    CLEAR     39  32  75 E5        30.15S
FORT MADISON * CLEAR     45  37  76 CALM      30.16S
KEOKUK *       CLEAR     43  36  75 CALM      30.15R
OSKALOOSA *      N/A     37  32  81 E6        30.14S WCI  33
CENTERVILLE *    N/A     36  34  93 E3        30.15S
OTTUMWA        FLURRIES  39  32  76 E6        30.13F WCI  35
WASHINGTON *   CLEAR     41  34  75 CALM      30.15S
$$

ABBREVIATIONS USED IN REMARKS
   TC - TEMPERATURES IN CELSIUS
  WCI - WIND CHILL INDEX
   HX - HEAT INDEX
  VSB - VISIBILITY
$$




USA.gov is the U.S. government's official web portal to all federal, state and local government web resources and services.